When you browse on this site, cookies collect data to enhance your experience and personalize the content and advertising you see.
Visit our Privacy Policy to learn more. By continuing to use the site, you agree to this use of cookies and data.
  • In Österreich
  • Länderverzeichnis
  • Für 7 Tage
  • Wassertemperatur
  • Satellitenkarten
  • Wetterkarte
  • News
  • Widgets
  • user-avatar
    Anmelden

    Stündliche Wetter Bezha

    Heute, 19 März, Dienstag

    Zeit Temperatur Niederschläge Wind Luftdruck Luftfeuchtigkeit
    00:00 +8°C° 0 mm 2 m/S 746 mmHg 64%
    01:00 +8°C° 0 mm 2 m/S 746 mmHg 63%
    02:00 +7°C° 0 mm 2 m/S 745 mmHg 62%
    03:00 +7°C° 0 mm 2 m/S 745 mmHg 62%
    04:00 +7°C° 0 mm 2 m/S 745 mmHg 63%
    05:00 +6°C° 0 mm 2 m/S 745 mmHg 63%
    06:00 +8°C° 0 mm 2 m/S 745 mmHg 60%
    07:00 +10°C° 0 mm 3 m/S 746 mmHg 57%
    08:00 +11°C° 0 mm 3 m/S 746 mmHg 55%
    09:00 +14°C° 0 mm 3 m/S 746 mmHg 49%
    10:00 +17°C° 0 mm 3 m/S 746 mmHg 44%
    11:00 +19°C° 0 mm 4 m/S 746 mmHg 39%
    12:00 +20°C° 0 mm 4 m/S 746 mmHg 39%
    13:00 +20°C° 0 mm 4 m/S 746 mmHg 40%
    14:00 +20°C° 0 mm 5 m/S 745 mmHg 40%
    15:00 +19°C° 0 mm 4 m/S 745 mmHg 47%
    16:00 +18°C° 0 mm 4 m/S 745 mmHg 53%
    17:00 +17°C° 0 mm 3 m/S 745 mmHg 60%
    18:00 +14°C° 0 mm 3 m/S 746 mmHg 61%
    19:00 +13°C° 0 mm 3 m/S 746 mmHg 62%
    20:00 +11°C° 0 mm 3 m/S 747 mmHg 63%
    21:00 +11°C° 0 mm 3 m/S 747 mmHg 64%
    22:00 +10°C° 0 mm 3 m/S 747 mmHg 65%
    23:00 +10°C° 0 mm 3 m/S 747 mmHg 66%

    Morgen, 20 März, Mittwoch

    Zeit Temperatur Niederschläge Wind Luftdruck Luftfeuchtigkeit
    00:00 +9°C° 0 mm 3 m/S 747 mmHg 66%
    01:00 +9°C° 0 mm 3 m/S 747 mmHg 65%
    02:00 +8°C° 0 mm 3 m/S 747 mmHg 65%
    03:00 +8°C° 0 mm 3 m/S 747 mmHg 64%
    04:00 +7°C° 0 mm 3 m/S 747 mmHg 63%
    05:00 +6°C° 0 mm 4 m/S 746 mmHg 62%
    06:00 +7°C° 0 mm 4 m/S 747 mmHg 58%
    07:00 +9°C° 0 mm 5 m/S 747 mmHg 54%
    08:00 +10°C° 0 mm 5 m/S 748 mmHg 51%
    09:00 +13°C° 0 mm 5 m/S 748 mmHg 47%
    10:00 +15°C° 0 mm 5 m/S 748 mmHg 43%
    11:00 +17°C° 0 mm 5 m/S 748 mmHg 39%
    12:00 +17°C° 0 mm 5 m/S 747 mmHg 39%
    13:00 +17°C° 0 mm 5 m/S 747 mmHg 39%
    14:00 +17°C° 0 mm 5 m/S 746 mmHg 40%
    15:00 +17°C° 0 mm 4 m/S 746 mmHg 45%
    16:00 +15°C° 0 mm 4 m/S 746 mmHg 51%
    17:00 +14°C° 0 mm 3 m/S 746 mmHg 57%
    18:00 +13°C° 0 mm 3 m/S 746 mmHg 59%
    19:00 +11°C° 0 mm 3 m/S 747 mmHg 60%
    20:00 +10°C° 0 mm 3 m/S 747 mmHg 61%
    21:00 +9°C° 0 mm 3 m/S 747 mmHg 63%
    22:00 +8°C° 0 mm 2 m/S 747 mmHg 66%
    23:00 +8°C° 0 mm 2 m/S 747 mmHg 68%

    übermorgen, 21 März, Donnerstag

    Zeit Temperatur Niederschläge Wind Luftdruck Luftfeuchtigkeit
    00:00 +8°C° 0 mm 1 m/S 747 mmHg 71%
    01:00 +8°C° 0 mm 1 m/S 746 mmHg 75%
    02:00 +7°C° 0 mm 1 m/S 746 mmHg 78%
    03:00 +7°C° 0 mm 1 m/S 746 mmHg 80%
    04:00 +7°C° 0 mm 1 m/S 746 mmHg 82%
    05:00 +7°C° 0 mm 1 m/S 746 mmHg 85%
    06:00 +8°C° 0 mm 1 m/S 747 mmHg 79%
    07:00 +10°C° 0 mm 1 m/S 747 mmHg 73%
    08:00 +12°C° 0 mm 2 m/S 748 mmHg 67%
    09:00 +14°C° 0 mm 2 m/S 748 mmHg 59%
    10:00 +16°C° 0 mm 3 m/S 748 mmHg 51%
    11:00 +18°C° 0 mm 3 m/S 748 mmHg 44%
    12:00 +19°C° 0 mm 4 m/S 747 mmHg 41%
    13:00 +19°C° 0 mm 4 m/S 747 mmHg 37%
    14:00 +20°C° 0 mm 5 m/S 746 mmHg 34%
    15:00 +18°C° 0 mm 4 m/S 746 mmHg 40%
    16:00 +17°C° 0 mm 4 m/S 746 mmHg 45%
    17:00 +16°C° 0 mm 3 m/S 746 mmHg 51%
    18:00 +13°C° 0 mm 3 m/S 747 mmHg 51%
    19:00 +12°C° 0 mm 3 m/S 747 mmHg 51%
    20:00 +10°C° 0 mm 3 m/S 747 mmHg 51%
    21:00 +9°C° 0 mm 3 m/S 747 mmHg 53%
    22:00 +9°C° 0 mm 2 m/S 747 mmHg 54%
    23:00 +8°C° 0 mm 2 m/S 747 mmHg 55%

    22 März, Freitag

    Zeit Temperatur Niederschläge Wind Luftdruck Luftfeuchtigkeit
    00:00 +7°C° 0 mm 2 m/S 747 mmHg 56%
    01:00 +7°C° 0 mm 2 m/S 747 mmHg 57%
    02:00 +6°C° 0 mm 2 m/S 746 mmHg 58%
    03:00 +6°C° 0 mm 2 m/S 746 mmHg 58%
    04:00 +6°C° 0 mm 2 m/S 746 mmHg 59%
    05:00 +6°C° 0 mm 2 m/S 746 mmHg 59%
    06:00 +8°C° 0 mm 3 m/S 746 mmHg 57%
    07:00 +9°C° 0 mm 3 m/S 747 mmHg 55%
    08:00 +11°C° 0 mm 4 m/S 747 mmHg 53%
    09:00 +13°C° 0 mm 4 m/S 747 mmHg 48%
    10:00 +15°C° 0 mm 4 m/S 747 mmHg 44%
    11:00 +18°C° 0 mm 4 m/S 747 mmHg 39%
    12:00 +19°C° 0 mm 4 m/S 746 mmHg 39%
    13:00 +20°C° 0 mm 4 m/S 746 mmHg 38%
    14:00 +21°C° 0 mm 4 m/S 745 mmHg 37%
    15:00 +20°C° 0 mm 3 m/S 745 mmHg 43%
    16:00 +19°C° 0 mm 3 m/S 745 mmHg 50%
    17:00 +18°C° 0 mm 3 m/S 745 mmHg 57%
    18:00 +16°C° 0 mm 3 m/S 745 mmHg 59%
    19:00 +14°C° 0 mm 2 m/S 745 mmHg 61%
    20:00 +13°C° 0 mm 2 m/S 745 mmHg 64%
    21:00 +12°C° 0 mm 2 m/S 745 mmHg 65%
    22:00 +10°C° 0 mm 2 m/S 745 mmHg 67%
    23:00 +10°C° 0 mm 1 m/S 745 mmHg 69%

    23 März, Samstag

    Zeit Temperatur Niederschläge Wind Luftdruck Luftfeuchtigkeit
    00:00 +10°C° 0 mm 1 m/S 744 mmHg 70%
    01:00 +10°C° 0 mm 1 m/S 744 mmHg 72%
    02:00 +9°C° 0 mm 1 m/S 744 mmHg 74%
    03:00 +8°C° 0 mm 2 m/S 744 mmHg 75%
    04:00 +8°C° 0 mm 2 m/S 743 mmHg 76%
    05:00 +7°C° 0 mm 2 m/S 743 mmHg 77%
    06:00 +9°C° 0 mm 3 m/S 743 mmHg 71%
    07:00 +11°C° 0 mm 4 m/S 743 mmHg 66%
    08:00 +13°C° 0 mm 5 m/S 744 mmHg 60%
    09:00 +15°C° 0 mm 5 m/S 743 mmHg 54%
    10:00 +17°C° 0 mm 5 m/S 743 mmHg 48%
    11:00 +20°C° 0 mm 5 m/S 743 mmHg 42%
    12:00 +20°C° 0 mm 5 m/S 742 mmHg 41%
    13:00 +21°C° 0 mm 5 m/S 742 mmHg 40%
    14:00 +22°C° 0 mm 5 m/S 741 mmHg 40%
    15:00 +20°C° 0 mm 4 m/S 741 mmHg 45%
    16:00 +19°C° 0 mm 4 m/S 741 mmHg 51%
    17:00 +18°C° 0 mm 3 m/S 741 mmHg 56%
    18:00 +17°C° 0 mm 4 m/S 741 mmHg 58%
    19:00 +15°C° 0 mm 4 m/S 741 mmHg 59%
    20:00 +13°C° 0 mm 4 m/S 742 mmHg 61%
    21:00 +12°C° 0 mm 3 m/S 741 mmHg 65%
    22:00 +11°C° 0 mm 3 m/S 741 mmHg 70%
    23:00 +10°C° 0 mm 2 m/S 741 mmHg 74%

    24 März, Sonntag

    Zeit Temperatur Niederschläge Wind Luftdruck Luftfeuchtigkeit
    00:00 +10°C° 0.1 mm 3 m/S 741 mmHg 76%
    01:00 +10°C° 0.1 mm 3 m/S 741 mmHg 78%
    02:00 +8°C° 0.1 mm 4 m/S 740 mmHg 80%
    03:00 +8°C° 0 mm 4 m/S 741 mmHg 80%
    04:00 +8°C° 0 mm 4 m/S 741 mmHg 80%
    05:00 +8°C° 0 mm 3 m/S 741 mmHg 80%
    06:00 +9°C° 0.3 mm 3 m/S 741 mmHg 78%
    07:00 +10°C° 0.3 mm 3 m/S 741 mmHg 77%
    08:00 +11°C° 0.3 mm 3 m/S 742 mmHg 76%
    09:00 +13°C° 0.1 mm 3 m/S 742 mmHg 71%
    10:00 +14°C° 0.1 mm 3 m/S 742 mmHg 65%
    11:00 +17°C° 0.1 mm 3 m/S 742 mmHg 60%
    12:00 +18°C° 0 mm 3 m/S 741 mmHg 56%
    13:00 +19°C° 0 mm 3 m/S 741 mmHg 52%
    14:00 +20°C° 0 mm 4 m/S 741 mmHg 49%
    15:00 +19°C° 0.6 mm 4 m/S 741 mmHg 59%
    16:00 +17°C° 0.6 mm 4 m/S 741 mmHg 69%
    17:00 +15°C° 0.6 mm 4 m/S 741 mmHg 80%
    18:00 +13°C° 0.2 mm 3 m/S 741 mmHg 84%
    19:00 +12°C° 0.2 mm 3 m/S 741 mmHg 89%
    20:00 +11°C° 0.2 mm 3 m/S 741 mmHg 93%
    21:00 +12°C° 0 mm 2 m/S 741 mmHg 93%
    22:00 +12°C° 0 mm 2 m/S 741 mmHg 94%
    23:00 +10°C° 0 mm 2 m/S 741 mmHg 94%
    Mehr zeigen